Simultaneous Nadir Overpasses (SNOs) Predictions

Prediction of SNOs between GOES-17 and METOP-B Satellite Orbit:

Table of predicted SNOs for the next 14.0 days since TLE Epoch: 2/12/2022
Index Date Time (GOES-17) GOES-17 Lat,Lon METOP-B Lat,Lon Distance(km) Time Diff (sec)
1 02/12/2022 18:45:55 0.01,-137.20 0.28,-138.49 145.98 80
2 02/13/2022 18:22:34 0.02,-137.20 -0.78,-133.48 422.48 80
3 02/15/2022 06:44:15 -0.03,-137.18 -0.24,-138.08 103.37 80
4 02/16/2022 06:20:55 -0.03,-137.17 0.88,-133.09 464.63 80
5 02/17/2022 18:39:46 0.02,-137.16 0.13,-137.65 56.25 80
6 02/20/2022 06:40:47 -0.02,-137.12 -0.02,-137.26 15.62 80
7 02/22/2022 18:38:58 0.02,-137.08 -0.03,-136.82 29.82 80
8 02/24/2022 06:55:18 -0.01,-137.04 -0.97,-141.42 498.38 80
9 02/25/2022 06:37:18 -0.01,-137.02 0.10,-136.42 67.92 80
